Tucson, AZ

4:37 AM MST on September 17, 2019 (GMT -0700)
Tucson International

Weather History for KTUS - July, 2019

Change the Weather History Date:

Wednesday, July 10, 2019

  Actual Average Record
Temperature  
Mean Temperature 91 °F 88 °F  
Max Temperature 109 °F 101 °F 109 °F (1958)
Min Temperature 72 °F 75 °F 60 °F (1926)
Degree Days  
Heating Degree Days 0 0  
Month to date heating degree days 0 0  
Since 1 June heating degree days 0 0  
Since 1 July heating degree days 0 0  
Cooling Degree Days 26 23  
Month to date cooling degree days 237 230  
Year to date cooling degree days 1222 1326  
Since 1 June cooling degree days 850 824  
Growing Degree Days 38 (Base 50)    
Moisture  
Dew Point 37 °F    
Average Humidity 15    
Maximum Humidity 26    
Minimum Humidity 5    
Precipitation  
Precipitation 0.00 in 0.06 in 0.59 in (1917)
Month to date precipitation 0.02 0.47  
Year to date precipitation 5.05 3.74  
Sea Level Pressure  
Sea Level Pressure 29.86 in    
Wind  
Wind Speed 6 mph (WNW)    
Max Wind Speed 17 mph    
Max Gust Speed 25 mph    
Visibility 10 miles    
Events      
T = Trace of Precipitation, MM = Missing Value Source: NWS Daily Summary

Daily Weather History Graph

Daily Weather History Graph

Search for Another Location

Airport or City:

Astronomy

Jul. 10, 2019 Rise Set
Actual Time 5:25 AM MST 7:32 PM MST
Civil Twilight 4:57 AM MST 8:00 PM MST
Nautical Twilight 4:23 AM MST 8:34 PM MST
Astronomical Twilight 3:46 AM MST 9:11 PM MST
Moon 1:56 PM MST (7/10) 12:50 AM MST (7/10)
Length of Visible Light 15h 03m
Length of Day
14h 07m
Waxing Gibbous, 65% of the Moon is Illuminated
Jul 10
Waxing Gibbous
Jul 16
Full
Jul 24
Last Quarter
Jul 31
New
Aug 7
First Quarter

Hourly Weather History & Observations

Time (MST) Temp. Dew Point Humidity Pressure Visibility Wind Dir Wind Speed Gust Speed Precip Events Conditions
12:53 AM 81.0 °F 36.0 °F 20% 29.87 in 10.0 mi WSW 5.8 mph - N/A   Clear
1:53 AM 80.1 °F 37.0 °F 21% 29.86 in 10.0 mi Calm Calm - N/A   Clear
2:53 AM 77.0 °F 35.1 °F 22% 29.87 in 10.0 mi SE 5.8 mph - N/A   Clear
3:53 AM 75.0 °F 36.0 °F 24% 29.88 in 10.0 mi South 5.8 mph - N/A   Clear
4:53 AM 73.0 °F 36.0 °F 26% 29.90 in 10.0 mi SSE 5.8 mph - N/A   Clear
5:53 AM 73.0 °F 36.0 °F 26% 29.91 in 10.0 mi SE 4.6 mph - N/A   Clear
6:53 AM 75.9 °F 37.0 °F 24% 29.93 in 10.0 mi Calm Calm - N/A   Clear
7:53 AM 82.0 °F 39.0 °F 22% 29.94 in 10.0 mi Calm Calm - N/A   Clear
8:53 AM 88.0 °F 37.0 °F 16% 29.94 in 10.0 mi Calm Calm - N/A   Clear
9:53 AM 93.0 °F 35.1 °F 13% 29.94 in 10.0 mi Variable 3.5 mph - N/A   Clear
10:53 AM 97.0 °F 35.1 °F 11% 29.92 in 10.0 mi Variable 4.6 mph - N/A   Clear
11:53 AM 100.0 °F 35.1 °F 10% 29.90 in 10.0 mi NNE 4.6 mph - N/A   Clear
12:53 PM 102.9 °F 36.0 °F 10% 29.88 in 10.0 mi NW 4.6 mph - N/A   Clear
1:53 PM 105.1 °F 36.0 °F 9% 29.84 in 10.0 mi Variable 3.5 mph - N/A   Clear
2:53 PM 106.0 °F 36.0 °F 9% 29.82 in 10.0 mi Calm Calm - N/A   Clear
3:53 PM 108.0 °F 36.0 °F 9% 29.80 in 10.0 mi NNW 8.1 mph 17.3 mph N/A   Clear
4:53 PM 105.1 °F 37.0 °F 10% 29.79 in 10.0 mi NNW 16.1 mph 21.9 mph N/A   Clear
5:53 PM 102.9 °F 37.0 °F 10% 29.78 in 10.0 mi NNW 11.5 mph - N/A   Clear
6:53 PM 102.0 °F 37.0 °F 11% 29.79 in 10.0 mi NNW 12.7 mph - N/A   Clear
7:53 PM 98.1 °F 37.9 °F 12% 29.79 in 10.0 mi NW 9.2 mph - N/A   Clear
8:53 PM 97.0 °F 37.9 °F 13% 29.81 in 10.0 mi NW 10.4 mph - N/A   Clear
9:53 PM 96.1 °F 37.9 °F 13% 29.82 in 10.0 mi WNW 6.9 mph - N/A   Clear
10:53 PM 91.0 °F 39.0 °F 16% 29.84 in 10.0 mi SW 6.9 mph - N/A   Clear
11:53 PM 89.1 °F 39.0 °F 17% 29.84 in 10.0 mi SW 8.1 mph - N/A   Clear